General Aviation Weather

Text Reports

Enter one or more of the following location identifiers separated by a space:

Zip Code, Four-Character ICAO or Three-Character IATA airport codes.

METAR - Aviation Routine Weather Report
KPUC - Price, Utah
Updated at 6:53 PM GMT on September 02, 2014 (12:53 PM MDT):
METAR KPUC 021853Z AUTO 14008KT 10SM CLR 27/M01 A3013 RMK AO2 SLP125 T02671011
TAF - Terminal Area Forecast
KPUC - Price, Utah
Updated at 6:53 PM GMT on September 02, 2014 (12:53 PM MDT):
No TAF is currently available for this location.
Decoded:
No decoded TAF is available.
PIREP - Pilot Weather Report
KPUC - Price, Utah
Updated at 6:53 PM GMT on September 02, 2014 (12:53 PM MDT):
No PIREP is currently available for this location.
AIRMET - Airmens Meteorological Information
KPUC - Price, Utah
Updated at 6:53 PM GMT on September 02, 2014 (12:53 PM MDT):
No AIRMET is currently available for this location.
SIGMET - Significant Meteorological Information
KPUC - Price, Utah
Updated at 6:53 PM GMT on September 02, 2014 (12:53 PM MDT):
No SIGMET is currently available for this location.
NOTAM - Notice to Airmen
KPUC - Price, Utah
Updated at 6:53 PM GMT on September 02, 2014 (12:53 PM MDT):
No NOTAM is currently available for this location.
Forecast Area
KPUC - Price, Utah
Updated at 6:53 PM GMT on September 02, 2014 (12:53 PM MDT):
No NOTAM is currently available for this location.
Aviation Weather Maps